STARLINK-2234, 48580

Orbit data source: Space-Track

STARLINK-2234, 48580 is a payload satellite owned by SpaceX/Seattle (US) in LEO that was launched on Sat, 15 May 2021 UTC via an FALCON 9 launch vehicle from the Air Force Eastern Test Range (AFETR). Payload-class satellites include a variety of spacecraft equipped with specific instruments for various scientific and technological missions. These include communications satellites like Starlink; space stations such as the ISS; scientific satellites like the Hubble; Earth observation satellites from companies like Planet Labs, Umbra, and HawkEye 360; GPS; miniature CubeSats for education and research; and military/defense satellites.

Loading next visibility...
Identifier
48580, 2021-041AD
Orbit
LEO
Last TLE update
7 hours ago
Origin
Manufacturer
SpaceX/Seattle
Mission
Operational Commercial Communications
Bus & Motor
STARLINK, Unknown motor
Mass
260 kg wet, ~248 kg dry
Launch date (UTC)
2021-05-15 (4 years ago)
Launch vehicle
FALCON 9
Launch site
Air Force Eastern Test Range (AFETR)
Object type
Payload
Rocket body
Debris
Shape & HBR
Box + 1 Pan, 8.86 m
Radar Cross Section
13.562 m², Large (>1 m²)

Expand to show TLE details & history

TLE from 7 hours ago
0 STARLINK-2234
1 48580U 21041AD  25130.14573774  .00004720  00000-0  33559-3 0  9993
2 48580  53.0551  29.2902 0001122  64.2710 295.8395 15.06398142220257
Epoch: 2025-05-10T03:29Z
Definitive object data (Epoch: 2025-05-10T03:29:51.74Z)
Latitude
-0.00001°
Longitude
108.63288°
Altitude
547.758 km
Speed
7.59 km/s
True Right ascension
01h 57m 09s
True Declination
0° 00' 00"
Sunlit
Object was in daylight at TLE epoch
Visualization TLE readout
Latitude
50.1856°
Longitude
-136.44346°
Altitude
552.488 km
Speed
7.592 km/s
Apparent Right ascension
08h 00m 33s
Apparent Declination
8° 07' 39"
Sunlit
Object is in daylight
Visualization observer readout
Local Sidereal Time
18:33:39
Azimuth
332.318° NNW
Elevation
-37.925°
Doppler factor
1
Orbital elements
Apogee altitude
548.265 km
Perigee altitude
546.711 km
Semi-major axis
6,925.625 km
Eccentricity
0.0001122
Inclination
53.0551°
RAAN
29.2902°
Arg. of periapsis
64.271°
True anomaly
295.82793°
Mean anomaly
295.8395°
Eccentric anomaly
295.83371°
Mean motion
3.76578 °/min
BSTAR
0.00033559
Orbital period
95.6 mins
Loading maneuver chart data...
Loading SW <> Apogee altitude chart data...
Loading historical data...
Loading historical data...
Loading historical data...
Loading historical data...
Loading historical data...
Loading historical data...
Loading historical data...

STARLINK-2234 Visibility forecast

Observer location: undefined°, undefined°

Span
Click to sort rows by Start time (UTC) header in descending order
Start Az.
Max El. time (UTC)
Max El. Az.
Max El.
End time (UTC)
End Az.
7 mins2025-05-10 19:35:14.433Z208.193° SW2025-05-10 19:38:14.433Z142.379° SSE38.277°2025-05-10 19:42:14.433Z59.164° ENE
5 mins2025-05-10 21:16:14.433Z291.512° WNW2025-05-10 21:18:14.433Z337.943° N25.121°2025-05-10 21:21:14.433Z30.486° NE
4 mins2025-05-11 00:38:14.433Z352.426° N2025-05-11 00:39:14.433Z9.572° NNE15.988°2025-05-11 00:42:14.433Z56.811° ENE
6 mins2025-05-11 02:17:14.433Z323.917° NNW2025-05-11 02:20:14.433Z59.706° ENE37.901°2025-05-11 02:23:14.433Z111.457° ESE
4 mins2025-05-11 03:57:14.433Z266.388° W2025-05-11 03:59:14.433Z227.913° WSW19.887°2025-05-11 04:01:14.433Z192.078° SSW
|